CO3D 2

Last updated on Mon Sep 07 2026 00:02:46 GMT+0000 (Coordinated Universal Time)

1 64902U 25156D 26249.51140469 .00002515 00000+0 11925-3 0 9996 2 64902 97.4342 326.9340 0001440 108.3241 251.8151 15.20205066 61880
UTC large
Height (km)
Speed (km/s)
/
Latitude / Longitude
Inclination (degrees)
Orbital Period (minutes)
Azimuth
Elevation
Range (km)
Doppler Factor

Next 0 passes for location: London (51.5072 / 0.1276)

No passes found over London.
CO3D 2